Location: STAR School
(35.3054°N, 111.2976°W)
Time: 18:33:55
(UTC-07:00)

SR - Visible Passes

Search period start: 23 May 2019 00:00
Search period end: 02 June 2019 00:00
Orbit: 583 x 873 km, 66.7° (Epoch: 23 May)

Date Brightness Start Highest point End Pass type
(mag) Time Alt. Az. Time Alt. Az. Time Alt. Az.
23 May ? 20:56:41 10° NW 21:01:13 47° WSW 21:04:54 17° S visible
24 May ? 20:06:56 10° NNW 20:11:40 78° ENE 20:16:47 10° SSE visible
25 May ? 21:00:05 10° WNW 21:03:51 23° WSW 21:07:50 10° SSW visible
26 May ? 20:09:46 10° NW 20:14:22 50° WSW 20:19:23 10° S visible
27 May ? 21:05:16 10° W 21:06:22 11° WSW 21:07:29 10° WSW visible
28 May ? 20:13:06 10° NW 20:17:01 25° WSW 20:21:10 10° SSW visible
30 May ? 20:17:48 10° W 20:19:33 12° WSW 20:21:20 10° SW visible
